map of PRG home
Great Circle Mapper logo
PRG - Airport
Location
City:  Prague, Czech Republic
Near (Alt.):Praha
Name:Ruzyne
ICAO / IATA:LKPR / PRG

Details
Type:Airport (Aerodrome, Airfield)
Use:Public/Civil, International (customs port of entry)
Latitude:5006'03"N (50.100833)
Longitude:1415'36"E (14.260000)
Datum:other
Elevation:1247 ft (380 m)
Variation:3.50E (WMM2015 magnetic declination)
0.13 annual change
Runways:3
Longest:12189 × 148 ft (3715 × 45 m), paved

Time
Time Zone:UTC+1 (DST+2)
Local Time:

Weather
METAR:LKPR 311400Z 24017KT 9999 FEW025 01/M02 Q0982 R24/29//95 R30/29//95 NOSIG
TAF:LKPR 311100Z 3112/0118 22015KT 9999 SCT033
TEMPO 3112/3115 24016G26KT 4000 SHSN OVC015
BECMG 3115/3117 21010KT CAVOK
TEMPO 3117/0118 27016KT 9999 -SHSN BKN023

Related Locations
Nearby:
Farthest:CHT: 11769 mi / 18940 km
Waitangi [Tuuta], Chatham Islands, NZ

Find:

   beyond  
but within

Other Information
Maps:
NOTAMs:
Links:
Sources:

  
flag of Czech Republic
flag of Prague
  

Sectional Chart

Flight Planning
at skyvector.com

Satellite Image

Google Maps Satellite View

 

Copyright © 2004-2015 Karl L. Swartz. All rights reserved.
The Great Circle Mapper name and logo are trademarks of the Great Circle Mapper.
All other trademarks mentioned herein belong to their respective owners.
Please see credits for attibutions and further copyright information.

  Follow gcmap on Facebook Follow gcmap on Twitter

hCard Microformat

Geo Microformat